Wind_Speed
6 5 4 5 5 3 8 5 5 9 3 4 3 5 3 1 1 1 5 16 11 9 7 7 8 7 6 6 6 6 7 8 10 9 8 6 4 5 6 7 8 8 9 10 12 14 16 16 12
7 4 2 2 6 4 4 3 3 3 2 3 4 3 6 5 3 4 9 15 13 9 8 7 7 7 6 6 6 6 9 9 10 8 6 4 4 6 8 10 11 12 12 12 12 13 14 13 12
8 4 1 2 5 4 4 5 2 4 2 4 4 3 3 7 7 9 10 8 8 9 9 8 8 7 6 6 6 7 8 9 8 6 4 4 6 9 11 13 14 14 14 13 13 13 12 11 9
9 4 1 2 5 4 5 4 2 3 8 6 4 5 3 5 6 6 5 7 7 9 8 7 6 5 5 6 6 7 8 8 7 4 4 6 9 12 14 15 15 15 16 15 14 12 11 10 7
10 5 1 6 7 4 4 2 3 8 8 8 9 2 3 6 5 5 5 4 6 8 8 7 5 5 6 5 6 6 6 6 4 3 6 9 12 14 15 16 17 17 17 16 14 12 10 9 7
9 5 8 13 7 6 7 6 2 2 5 6 9 4 3 5 8 4 5 6 7 10 8 7 6 6 7 7 7 7 7 5 2 3 7 10 12 14 16 17 18 19 19 17 14 11 9 7 6
7 6 10 16 10 14 6 11 9 4 3 11 12 5 5 6 8 6 8 8 9 11 11 8 7 7 7 7 7 7 7 4 2 4 6 9 11 12 15 16 17 19 20 20 15 12 10 9 6
9 7 11 15 12 7 6 9 9 6 5 10 10 7 6 4 7 8 10 8 9 10 10 9 7 7 6 6 7 7 7 4 1 2 5 8 10 12 14 16 18 19 20 21 19 13 9 7 7
8 10 13 15 13 4 8 7 10 5 4 7 12 8 5 7 7 9 11 11 10 10 10 8 6 5 5 5 5 5 5 3 1 3 4 6 9 11 14 16 18 19 19 20 21 15 9 9 9
7 9 11 14 13 11 10 2 7 6 9 7 12 10 7 10 9 9 13 13 12 11 10 7 6 5 5 4 4 5 4 3 2 4 5 8 9 12 14 15 15 16 18 16 17 16 13 10 10
5 8 11 10 12 11 11 8 7 11 11 8 9 12 8 4 7 8 8 9 12 11 9 8 7 5 5 5 4 5 5 4 5 6 7 9 10 12 14 16 16 17 18 14 17 14 12 10 10
8 4 8 10 8 7 6 6 6 11 9 5 8 12 9 6 5 9 7 8 9 10 9 9 8 7 4 1 1 4 6 7 8 9 9 11 12 12 15 19 20 20 19 15 15 15 11 9 8
9 8 6 6 5 4 3 8 7 12 7 6 9 13 11 5 4 10 8 4 6 6 7 8 8 8 7 5 3 5 7 8 9 10 11 13 14 14 18 21 18 23 22 18 11 14 11 9 10
8 8 4 3 2 1 3 2 3 7 7 6 7 7 7 3 2 8 5 2 2 6 4 6 9 11 8 5 5 7 8 9 10 12 14 16 18 18 21 25 23 23 23 19 15 12 10 9 10
5 6 4 4 3 3 3 1 3 5 8 5 5 8 4 5 2 5 10 2 3 1 3 4 7 11 10 7 6 7 10 11 11 13 16 18 21 21 22 20 23 22 19 18 12 11 6 6 7
2 5 11 10 7 6 6 4 4 8 8 4 3 8 4 1 5 7 7 5 5 3 2 2 6 10 12 12 8 9 10 11 13 15 17 20 22 25 23 22 22 23 15 12 6 11 6 4 6
5 7 7 4 7 7 6 3 12 11 8 7 3 6 7 5 9 9 10 8 6 5 3 2 7 11 10 12 14 13 12 13 14 15 17 20 23 25 24 23 21 19 7 11 11 10 7 5 6
4 3 6 8 7 8 6 6 5 5 10 9 7 6 8 8 12 5 8 9 5 6 6 2 6 13 11 16 14 16 17 15 16 17 17 20 24 25 25 24 22 15 9 5 4 5 2 3 7
4 5 9 10 8 10 7 5 4 6 11 11 9 2 4 10 9 5 6 8 11 11 8 3 6 11 11 12 13 18 17 16 16 18 18 21 23 25 24 24 23 7 2 2 3 4 2 2 3
4 4 12 12 13 10 8 5 8 9 9 9 8 1 4 4 11 9 7 9 9 12 9 6 7 12 14 12 13 9 17 16 15 17 18 20 20 22 21 23 13 7 4 2 2 4 5 3 4
3 2 18 18 18 5 9 8 11 12 11 9 3 6 8 4 5 8 7 7 6 7 7 6 7 11 13 12 11 11 12 14 15 15 16 17 19 17 17 19 10 9 6 3 2 3 5 4 6
6 8 14 14 18 4 11 4 15 16 14 12 7 7 8 3 4 4 4 5 4 5 5 6 8 10 11 11 12 11 11 11 12 14 14 14 13 13 13 12 5 10 7 5 5 6 6 7 10
9 8 11 11 10 6 14 6 7 16 18 15 6 5 4 5 3 2 2 2 6 6 6 7 9 11 13 11 11 10 10 10 11 12 13 13 12 11 11 8 10 9 9 9 9 10 9 11 14
12 11 10 9 9 4 5 6 3 2 8 10 4 11 13 15 17 12 14 13 11 8 7 7 5 6 7 10 12 12 13 13 15 15 15 14 13 11 11 11 12 13 12 11 13 16 15 15 16
12 10 2 1 1 4 3 3 2 5 4 12 10 9 11 13 12 11 9 9 10 10 9 12 9 5 5 8 9 9 10 11 13 15 16 16 16 14 13 13 18 18 19 18 20 20 18 17 19
11 10 6 5 3 3 1 3 0 1 4 15 12 7 4 2 2 2 4 3 6 4 10 8 4 3 5 9 10 11 11 12 13 13 15 16 16 15 16 16 18 23 24 26 27 24 20 17 19
8 7 5 6 4 1 3 3 2 2 1 5 13 5 3 5 7 7 6 3 6 8 8 3 1 3 7 8 8 8 11 13 16 15 16 17 17 17 16 16 17 20 24 28 28 25 26 24 23
6 7 3 4 4 3 1 3 3 1 1 4 7 5 7 9 11 11 11 8 8 11 12 7 7 8 6 7 7 9 10 13 17 20 21 19 18 20 20 20 20 19 20 22 26 24 21 25 25
4 4 4 5 3 6 1 0 1 4 7 6 7 10 13 10 11 14 16 13 12 14 17 14 11 13 14 15 13 13 14 20 30 23 19 23 22 21 22 22 22 22 22 23 23 22 20 22 19
7 7 6 3 4 4 4 5 6 4 2 6 11 11 11 16 19 20 19 20 18 17 18 19 14 15 18 19 19 21 24 27 30 25 22 15 24 25 24 24 24 24 24 23 22 19 22 21 21
Wind_Direction
259 285 332 47 67 114 175 166 123 125 30 44 20 346 10 354 23 347 153 171 164 148 148 140 139 140 145 157 161 145 139 137 133 128 117 102 69 32 10 357 356 351 343 340 343 348 356 356 337
244 261 321 36 63 103 190 228 218 201 59 23 34 67 53 64 54 110 131 164 167 161 151 146 140 140 150 160 152 144 142 141 139 133 120 83 35 9 358 350 343 338 336 336 338 344 355 1 350
228 246 322 353 84 43 1 308 296 126 20 292 307 23 19 55 78 119 136 163 171 148 146 146 143 146 149 152 145 145 142 144 140 128 95 43 13 358 349 341 337 337 334 334 333 339 353 359 355
210 218 235 42 16 2 314 322 292 282 348 288 319 333 59 79 105 140 164 156 154 133 134 135 132 138 143 142 143 146 148 146 139 115 53 17 3 354 347 344 349 352 348 343 343 343 349 356 347
197 199 44 2 2 330 283 200 35 237 324 300 324 94 88 65 77 127 147 151 136 122 122 120 126 140 136 141 142 140 143 132 111 51 19 8 0 354 353 353 357 359 355 350 343 344 346 352 346
188 93 62 36 46 93 125 109 122 168 322 353 59 99 73 55 83 109 125 133 132 127 124 129 143 148 151 147 149 149 144 135 104 28 14 9 6 3 3 357 355 357 0 1 354 350 340 349 348
157 110 54 54 63 97 110 138 127 161 263 69 80 58 32 47 89 119 104 109 119 124 124 132 145 148 151 154 150 145 138 139 88 18 10 11 10 7 5 357 353 358 2 0 354 349 345 347 5
152 104 58 54 66 96 167 163 173 234 110 75 69 68 32 54 87 88 97 100 116 120 128 134 140 141 153 157 154 147 153 146 79 5 14 4 2 5 3 355 352 355 360 1 355 354 344 342 349
150 99 61 54 68 113 144 157 188 174 106 75 49 31 100 106 83 85 89 91 105 115 119 123 136 140 145 148 145 154 162 166 278 343 346 347 354 356 354 352 348 347 356 356 350 351 343 340 332
150 101 62 68 76 86 162 162 196 154 142 91 46 45 120 111 107 103 105 96 93 102 97 97 109 120 134 141 166 184 191 203 263 311 316 325 338 344 351 344 342 338 341 347 346 341 333 332 336
156 107 78 83 87 87 94 125 159 151 149 76 61 46 68 102 102 106 99 105 95 81 75 76 79 113 137 161 188 214 221 243 278 308 309 313 323 333 345 344 342 328 326 334 333 335 330 325 337
157 128 99 77 75 97 94 96 158 153 161 149 92 76 65 32 67 128 105 125 113 97 76 47 35 43 60 175 281 275 273 277 281 288 300 305 312 325 335 340 330 324 320 314 320 320 323 320 334
123 120 124 86 74 44 113 138 149 163 162 144 138 95 62 50 134 156 156 132 123 106 80 51 29 15 19 11 332 280 275 278 276 291 300 305 308 314 321 332 324 316 309 305 301 311 319 319 331
136 136 168 105 86 70 84 170 124 170 164 141 137 126 77 96 160 199 219 224 172 134 74 30 9 -0 347 342 302 284 280 282 291 298 303 309 311 311 318 325 320 313 306 302 290 292 317 326 334
157 178 233 106 102 180 86 191 185 158 146 150 154 160 88 37 277 221 232 237 238 233 104 38 359 345 338 323 302 285 278 284 294 300 301 311 312 320 319 315 311 310 307 299 300 291 315 317 325
174 163 145 156 176 219 221 180 118 148 131 166 207 163 174 350 3 255 220 189 204 150 113 39 346 329 329 330 319 289 285 290 294 298 311 312 323 322 327 320 318 314 301 306 300 286 303 314 333
109 131 160 188 208 209 210 168 135 131 148 190 245 207 229 244 310 281 238 206 187 196 244 306 309 314 310 314 306 303 296 291 290 300 305 313 323 324 322 320 314 313 300 310 311 283 300 338 334
143 236 238 217 191 205 237 232 143 168 167 189 223 216 254 284 286 236 250 220 232 246 256 301 319 310 307 305 301 320 299 292 294 298 305 314 319 321 320 317 318 294 281 240 237 274 301 359 343
286 294 213 192 180 197 215 238 256 221 177 192 206 210 254 258 230 246 226 221 238 251 252 282 283 317 306 313 300 305 300 295 302 302 306 312 318 316 315 317 318 282 185 226 293 284 297 4 328
306 10 159 161 172 186 209 234 217 195 190 204 191 17 4 243 245 223 249 244 228 238 251 286 300 308 303 300 305 288 294 301 306 301 303 306 308 309 312 316 302 236 194 208 298 298 306 308 322
159 226 174 184 186 182 186 197 222 211 216 228 259 355 0 334 223 260 216 238 242 245 256 275 311 307 313 320 317 306 294 298 302 298 296 300 301 306 312 317 303 189 193 201 265 290 290 296 329
120 169 174 189 188 173 199 229 237 239 248 260 294 342 354 104 171 209 220 266 293 267 278 315 299 299 309 304 296 294 293 290 287 290 294 292 290 301 312 310 232 185 213 244 279 292 295 282 304
165 143 172 184 205 199 206 232 250 232 256 274 268 353 61 93 124 115 111 34 12 4 343 319 313 307 311 326 330 332 317 317 316 308 301 300 293 296 304 277 205 223 234 268 285 292 291 285 276
178 157 173 194 211 198 201 216 268 263 294 271 182 108 84 98 87 85 83 77 55 26 26 27 334 313 335 344 337 330 329 333 334 331 327 323 315 300 289 257 237 245 249 261 285 294 285 276 275
170 174 152 146 30 204 167 246 250 314 344 141 155 126 105 106 89 100 125 121 83 54 40 23 7 28 27 24 9 343 330 330 327 326 327 328 326 316 298 276 259 259 259 271 283 287 280 276 274
207 223 202 177 195 218 207 238 232 321 67 156 171 171 174 231 304 31 75 156 133 4 29 49 75 35 50 33 19 357 343 333 327 322 320 319 320 318 314 299 278 270 271 275 281 285 273 276 270
212 192 208 146 158 184 183 207 263 271 300 188 187 208 216 281 292 296 297 266 238 293 338 20 212 280 328 3 4 354 346 329 320 317 316 315 313 311 310 306 298 286 279 279 279 274 265 269 274
196 188 161 193 133 194 262 228 212 209 24 242 232 254 271 292 287 289 297 279 267 265 288 308 260 269 300 306 315 323 320 306 311 308 303 303 304 305 304 302 300 295 291 286 279 275 271 263 272
190 209 203 163 137 144 128 41 297 226 181 204 243 269 279 291 296 293 282 277 275 267 278 290 291 274 274 291 294 306 303 305 316 303 289 290 292 293 295 297 297 295 295 297 294 276 267 268 270
190 181 192 208 190 147 143 182 126 101 116 219 240 258 256 262 270 282 280 267 269 272 271 285 275 268 271 288 302 310 309 310 311 300 285 269 286 287 285 288 291 291 290 291 291 285 268 269 264
Height
3174 3175 3176 3176 3180 3176 3175 3177 3177 3176 3175 3174 3173 3172 3171 3168 3169 3173 3169 3172 3174 3176 3177 3178 3179 3181 3183 3185 3186 3187 3189 3190 3191 3192 3192 3192 3192 3191 3189 3188 3187 3186 3185 3184 3183 3180 3179 3177 3175
3174 3175 3176 3176 3178 3177 3177 3176 3178 3177 3177 3175 3174 3172 3171 3169 3168 3168 3170 3172 3174 3176 3177 3179 3180 3183 3184 3186 3187 3188 3190 3191 3192 3193 3193 3193 3192 3191 3189 3187 3186 3186 3184 3184 3183 3181 3180 3177 3175
3174 3175 3177 3177 3178 3177 3177 3177 3178 3179 3178 3177 3175 3174 3172 3171 3170 3172 3173 3175 3176 3177 3179 3181 3182 3184 3186 3187 3188 3189 3190 3192 3193 3194 3194 3193 3192 3191 3189 3187 3185 3184 3182 3181 3181 3180 3179 3177 3175
3173 3176 3177 3177 3178 3178 3178 3179 3180 3181 3180 3177 3177 3176 3174 3173 3173 3174 3175 3176 3177 3178 3180 3183 3184 3186 3187 3188 3189 3190 3192 3193 3194 3194 3194 3194 3192 3190 3188 3186 3184 3183 3181 3180 3179 3178 3178 3177 3175
3172 3175 3176 3177 3177 3177 3177 3179 3181 3181 3180 3178 3178 3176 3175 3174 3175 3175 3176 3177 3178 3180 3182 3184 3186 3187 3188 3189 3190 3192 3193 3194 3195 3195 3195 3194 3193 3191 3188 3186 3183 3182 3180 3179 3178 3177 3176 3175 3175
3173 3176 3177 3176 3175 3175 3176 3179 3180 3180 3180 3180 3180 3179 3177 3176 3175 3176 3176 3177 3179 3180 3182 3183 3185 3186 3187 3188 3190 3192 3194 3195 3196 3196 3196 3195 3193 3191 3188 3186 3184 3183 3181 3179 3177 3176 3175 3174 3173
3174 3176 3177 3176 3176 3176 3178 3179 3179 3181 3182 3180 3179 3180 3178 3176 3175 3177 3177 3178 3179 3180 3181 3184 3186 3187 3187 3189 3191 3193 3195 3196 3196 3196 3196 3195 3193 3192 3189 3186 3184 3183 3181 3179 3177 3175 3174 3173 3172
3174 3177 3177 3176 3176 3178 3179 3180 3180 3183 3183 3181 3180 3180 3179 3177 3176 3178 3178 3179 3179 3180 3182 3183 3186 3187 3189 3190 3191 3193 3194 3195 3196 3196 3195 3195 3194 3192 3189 3186 3183 3181 3180 3178 3176 3175 3173 3172 3171
3174 3177 3177 3177 3177 3179 3181 3182 3182 3183 3184 3183 3182 3180 3179 3179 3180 3180 3180 3181 3182 3183 3183 3185 3187 3188 3190 3192 3193 3195 3195 3196 3196 3195 3195 3194 3193 3191 3189 3187 3185 3182 3180 3178 3175 3174 3172 3171 3171
3174 3176 3177 3177 3178 3179 3181 3182 3183 3185 3185 3185 3184 3181 3179 3181 3181 3181 3182 3183 3184 3185 3185 3187 3188 3190 3191 3192 3194 3195 3196 3196 3196 3195 3195 3194 3193 3191 3189 3187 3184 3183 3180 3178 3176 3173 3172 3170 3169
3174 3176 3177 3178 3179 3180 3181 3182 3183 3185 3185 3185 3185 3183 3182 3183 3183 3183 3185 3185 3186 3186 3187 3189 3189 3190 3191 3191 3193 3195 3196 3195 3195 3195 3195 3193 3192 3191 3189 3186 3183 3181 3179 3177 3176 3173 3171 3169 3168
3174 3175 3176 3177 3179 3180 3181 3182 3183 3184 3185 3185 3186 3184 3185 3186 3186 3187 3187 3188 3188 3188 3189 3190 3191 3192 3192 3193 3194 3195 3195 3195 3195 3194 3194 3193 3192 3191 3188 3185 3183 3180 3178 3176 3174 3172 3170 3169 3166
3173 3175 3176 3177 3178 3179 3180 3182 3183 3184 3185 3185 3186 3185 3186 3186 3187 3187 3188 3189 3189 3189 3190 3191 3192 3192 3193 3194 3194 3193 3193 3194 3193 3193 3193 3192 3191 3190 3187 3184 3181 3178 3175 3173 3172 3170 3170 3168 3166
3173 3174 3176 3177 3178 3180 3181 3182 3183 3184 3185 3185 3186 3187 3186 3186 3186 3187 3188 3189 3190 3190 3190 3191 3192 3193 3193 3193 3193 3193 3193 3193 3192 3192 3192 3191 3189 3188 3185 3182 3179 3175 3172 3170 3169 3168 3168 3167 3165
3172 3174 3175 3176 3177 3179 3180 3181 3181 3182 3183 3184 3186 3187 3186 3185 3185 3186 3187 3188 3189 3190 3191 3190 3191 3192 3192 3192 3192 3192 3191 3191 3191 3190 3189 3188 3186 3184 3182 3179 3176 3172 3170 3167 3166 3166 3166 3166 3165
3171 3172 3174 3176 3178 3179 3179 3180 3178 3180 3182 3184 3185 3187 3186 3186 3185 3185 3186 3188 3188 3189 3189 3190 3190 3191 3191 3191 3190 3189 3189 3189 3188 3187 3187 3185 3182 3180 3177 3174 3172 3168 3166 3166 3164 3164 3165 3165 3165
3170 3172 3174 3176 3177 3178 3179 3179 3179 3179 3181 3182 3184 3186 3185 3186 3185 3185 3185 3188 3188 3189 3189 3188 3189 3190 3189 3189 3188 3186 3186 3186 3185 3184 3183 3182 3180 3177 3173 3171 3168 3165 3164 3164 3163 3164 3164 3164 3164
3170 3171 3173 3174 3177 3177 3178 3180 3180 3180 3180 3181 3184 3185 3185 3185 3185 3184 3184 3186 3186 3187 3188 3187 3187 3187 3188 3187 3185 3185 3185 3183 3182 3182 3181 3179 3176 3173 3171 3168 3165 3163 3162 3161 3162 3163 3163 3163 3162
3168 3168 3169 3172 3174 3176 3178 3179 3180 3181 3180 3181 3183 3184 3185 3184 3183 3183 3183 3183 3184 3186 3186 3185 3185 3186 3186 3186 3183 3184 3180 3179 3179 3177 3176 3175 3172 3171 3169 3166 3163 3161 3161 3160 3160 3161 3161 3161 3161
3165 3165 3167 3171 3174 3176 3177 3178 3179 3180 3179 3180 3181 3181 3181 3181 3180 3181 3182 3182 3182 3184 3184 3183 3184 3183 3183 3180 3180 3180 3178 3177 3176 3175 3173 3172 3171 3169 3167 3164 3160 3159 3160 3160 3160 3160 3160 3160 3160
3164 3165 3167 3169 3172 3174 3175 3177 3178 3179 3178 3179 3180 3180 3179 3178 3179 3179 3180 3180 3180 3182 3182 3181 3181 3180 3179 3178 3178 3177 3176 3174 3173 3172 3171 3170 3169 3167 3164 3161 3158 3159 3160 3160 3160 3159 3159 3158 3158
3164 3165 3168 3170 3172 3173 3175 3177 3176 3175 3177 3177 3179 3177 3177 3176 3178 3179 3180 3179 3178 3179 3179 3178 3178 3178 3177 3176 3176 3175 3174 3172 3171 3170 3168 3166 3165 3163 3162 3159 3158 3158 3159 3159 3159 3158 3158 3157 3156
3166 3166 3169 3170 3172 3172 3173 3176 3172 3173 3173 3174 3178 3177 3176 3175 3176 3177 3178 3178 3177 3177 3177 3177 3176 3176 3175 3175 3174 3172 3172 3171 3170 3168 3166 3164 3161 3161 3159 3157 3157 3157 3157 3156 3156 3156 3155 3155 3154
3164 3166 3169 3171 3171 3173 3171 3173 3170 3170 3169 3172 3176 3177 3176 3176 3177 3177 3177 3178 3178 3177 3178 3177 3176 3176 3176 3176 3175 3173 3172 3170 3168 3166 3164 3161 3160 3159 3157 3156 3156 3155 3154 3153 3152 3152 3151 3150 3150
3164 3166 3168 3172 3172 3172 3170 3171 3168 3168 3168 3170 3175 3177 3178 3178 3179 3180 3179 3179 3179 3179 3179 3177 3177 3177 3177 3176 3174 3172 3170 3168 3167 3165 3163 3161 3159 3157 3156 3155 3154 3152 3151 3149 3148 3147 3147 3146 3145
3161 3164 3164 3171 3175 3171 3170 3170 3169 3168 3169 3171 3173 3175 3177 3178 3179 3179 3180 3179 3179 3178 3177 3176 3176 3176 3175 3174 3172 3170 3168 3166 3165 3163 3162 3160 3157 3155 3153 3152 3150 3149 3147 3145 3144 3143 3141 3140 3140
3159 3160 3162 3164 3168 3169 3170 3171 3170 3169 3169 3171 3173 3174 3175 3177 3177 3177 3177 3177 3177 3177 3176 3176 3175 3174 3172 3171 3169 3168 3166 3165 3163 3161 3159 3158 3155 3152 3150 3149 3147 3144 3142 3139 3137 3136 3135 3135 3134
3156 3159 3161 3162 3168 3169 3167 3168 3168 3169 3169 3170 3172 3172 3173 3174 3174 3174 3174 3174 3173 3173 3173 3173 3172 3171 3170 3169 3168 3166 3164 3162 3161 3160 3158 3155 3152 3150 3147 3145 3142 3139 3136 3134 3131 3128 3129 3128 3127
3155 3156 3158 3160 3162 3165 3170 3167 3166 3167 3167 3168 3170 3170 3170 3170 3170 3171 3171 3171 3169 3168 3169 3169 3168 3168 3167 3166 3164 3163 3160 3158 3156 3152 3151 3151 3148 3145 3143 3140 3137 3135 3132 3128 3125 3123 3123 3122 3121
3153 3155 3157 3158 3161 3161 3164 3166 3165 3165 3166 3167 3167 3167 3167 3166 3166 3166 3166 3166 3165 3164 3164 3165 3165 3164 3162 3161 3160 3159 3156 3154 3151 3147 3143 3140 3142 3140 3137 3135 3132 3129 3127 3123 3120 3118 3116 3116 3113